Location: Hackberry
(29.5783°N, 96.8797°W)
Time: 04:44:21
(UTC+00:00)

ISS - Visible Passes

Search period start: 07 October 2024 00:00
Search period end: 17 October 2024 00:00
Orbit: 412 x 425 km, 51.6° (Epoch: 07 October)

Date Brightness Start Highest point End Pass type
(mag) Time Alt. Az. Time Alt. Az. Time Alt. Az.
15 Oct -1.9 11:16:18 10° SSW 11:19:16 30° SE 11:22:15 10° ENE visible
16 Oct -1.0 10:30:44 15° SE 10:31:07 15° SE 10:33:11 10° E visible
16 Oct -2.8 12:04:39 10° WSW 12:07:39 30° NW 12:10:38 10° NNE visible
